Location: Kumla
(59.1265°N, 15.1401°E)
Time: 04:17:04
(UTC+01:00)

Transit 2A - Pass Details

Date: 04 December 2023
Orbit: 600 x 953 km, 66.7° (Epoch: 24 February)

Event Time Altitude Azimuth Distance (km) Brightness Sun altitude
Rises 14:52:07 0° 169° (S) 3,152 9.8 0.4°
Reaches altitude 10° 14:55:24 10° 148° (SSE) 2,162 8.6 0.1°
Maximum altitude 14:58:15 16° 112° (ESE) 1,755 7.7 -0.1°
Drops below altitude 10° 15:00:59 10° 76° (ENE) 2,060 7.7 -0.4°
Enters shadow 15:03:51 - 55° (NE) 2,880 8.3 -0.6°
Sets 15:03:59 0° 54° (NE) 2,927 - -0.6°
